www.pogodaiklimat.ru

Погода и климат >> Архив погоды >> Монголия >> Ханбогд


ПОГОДА в Ханбогде

  • Прогноз погоды в Ханбогде
  • Монитор погоды в Ханбогде

АРХИВ ПОГОДЫ в Ханбогде

Время (UTC), дата Ветер
(напр.,м/с)
 
Видим.   Явления Облачность Т
(С)
Тd
(С)
f
(%)
Тe
(С)
Тes
(С)
Комфортность P
(гПа)
Po
(гПа)
Тmin
(С)
Tmax
(С)
R
(мм)
R24
(мм)
S
(см)
09 15.08 С 7 50 км 4/3 1000 м
[Cu med, cong Ci]
+22.4 +4.4 31 +23 +24 комфорт 1004.9 883.4
12 15.08 С 8
{15}
50 км 4/3 1000 м
[Sc Ac trans Ci]
+19.6 +5.6 40 +20 +20 1006.9 884.1 +22.8
15 15.08 СВ 4 50 км 3/0
[Cc]
+16.3 +8.3 59 +16 +16 1010.6 886.1
18 15.08 С 2 50 км 1/0
[Ci fib]
+14.1 +7.4 64 +14 +14 1012.0 886.3
21 15.08 штиль 0 50 км 6/0
[Ac lent Cs]
+12.6 +6.9 68 +12 +12 1012.8 886.5
00 16.08 З 2 50 км 9/0
[Ac trans Cs]
+13.9 +7.4 65 +13 +15 1013.7 887.8 +12.0
03 16.08 З 2 50 км 6/4 1000 м
[Cu hum Ci fib]
+19.9 +6.6 42 +21 +29 комфорт 1011.1 887.9
06 16.08 В 2 50 км 8/8 1000 м
[Cu med, cong]
+23.1 +4.1 29 +23 +26 комфорт 1007.8 886.2
09 16.08 СЗ 2 50 км 8/6 1000 м
[Cu med, cong Ci]
+24.9 +3.5 25 +24 +26 комфорт 1005.6 884.9
12 16.08 С 2 50 км 4/0
[Ac und]
+23.4 +2.8 26 +23 +23 комфорт 1005.9 884.8 +25.3
15 16.08 В 1 50 км 3/0
[Cc]
+19.8 +3.5 34 +21 +21 комфорт 1008.1 885.3
18 16.08 З 1 50 км 3/0
[Ci]
+16.7 +3.7 42 +18 +18 1009.5 885.3
21 16.08 З 3 50 км 3/0
[Ci fib]
+14.8 +3.3 46 +14 +14 1010.2 885.1
00 17.08 З 3 50 км 4/0
[Cs]
+15.7 +4.1 46 +15 +18 1010.3 885.5 +14.1
03 17.08 СВ 2 50 км 3/0
[Cs]
+24.6 +4.9 28 +24 +37 комфорт 1005.8 885.1
06 17.08 ЮЗ 3 50 км 6/0
[Ac cast]
+28.4 +3.3 20 +27 +34 жарко 1001.4 882.6
09 17.08 ЮЗ 4 50 км 4/3 1000 м
[Cu hum Cs]
+30.0 +3.1 18 +28 +30 жарко 998.7 880.8
12 17.08 ЮЗ 5 50 км 4/3 1000 м
[Sc Ac trans]
+28.6 +2.7 19 +27 +27 жарко 998.4 880.1 +30.9
15 17.08 ЮЗ 5 50 км 3/0
[Cc]
+25.9 +1.9 21 +24 +24 комфорт 1000.7 881.1
18 17.08 З 3 50 км 1/0
[Ci fib]
+23.4 +2.3 25 +23 +23 комфорт 1001.8 881.1
21 17.08 З 3 50 км 6/0
[Cs]
+17.5 +2.7 37 +18 +18 1005.7 882.3
00 18.08 З 2 50 км 10/0
[As op Cs]
+19.7 +3.8 35 +21 +22 комфорт 1006.4 883.8 +17.3
03 18.08 СВ 4 50 км 9/0
[Ac As Cs]
+27.4 +5.6 25 +26 +32 жарко 1004.1 884.6
06 18.08 СВ 4 50 км 9/1 1000 м
[Cu hum Ac As Cs]
+29.4 +4.1 20 +28 +33 жарко 1002.2 883.7
09 18.08 СВ 4 50 км 3/0
[Cc]
+29.9 +4.5 20 +28 +31 жарко 1001.0 882.8
12 18.08 В 4 50 км 6/0
[Ac lent]
+27.3 +4.4 23 +26 +26 жарко 1002.5 883.2 +30.6
15 18.08 В 4 50 км 10/0
[Ac As]
+23.6 +3.0 26 +23 +23 комфорт 1005.9 884.8
18 18.08 ЮВ 6 н/о 10/0
[As trans]
+22.1 +4.6 32 +22 +22 комфорт 1006.2 884.4
21 18.08 В 1 50 км 9/0
[As op]
+19.1 +5.2 40 +21 +21 комфорт 1006.5 883.6
00 19.08 В 4 50 км 10/0
[Ac As]
+19.6 +6.7 43 +20 +21 1006.5 883.8 +19.1
03 19.08 В 6 50 км 9/0
[Ac und Cc]
+24.4 +7.1 33 +25 +28 комфорт 1003.9 883.3
06 19.08 В 6 50 км 10/0
[Ac As]
+27.4 +6.8 27 +27 +29 жарко 1000.7 881.7
09 19.08 С 5 50 км 10/5 600 м
[Sc As trans]
+26.9 +5.8 26 +26 +27 жарко 1001.0 881.7
12 19.08 З 4 50 км в посл. час дождь 10/0 600 м
[As op]
+19.4 +14.6 74 +21 +21 комфорт 1006.1 883.4 +28.2 0.0
15 19.08 З 3 н/о 10/5 1000 м
[Sc As trans]
+20.0 +11.2 57 +22 +22 комфорт 1006.6 884.0
18 19.08 ЮЗ 7 50 км 5/0
[Cs]
+18.9 +12.2 65 +19 +19 1006.6 883.5
21 19.08 З 5 50 км 3/0
[Ac lent Ci sp]
+16.6 +10.4 67 +16 +16 1008.9 884.7
00 20.08 СЗ 5 50 км 1/0
[Ac trans]
+17.0 +12.1 73 +16 +18 1011.0 886.7 +15.2
03 20.08 С 5 50 км 3/1 1000 м
[Cu hum Ci fib]
+22.8 +8.5 40 +24 +30 комфорт 1010.3 888.3
06 20.08 СЗ 5 50 км 8/6 1000 м
[Cu med, cong Ci fib]
+24.1 +5.5 30 +24 +27 комфорт 1010.1 888.5
09 20.08 С 6
{13}
50 км 5/5 1000 м
[Cu hum]
+24.4 +3.7 26 +24 +25 комфорт 1010.1 888.7
12 20.08 С 5 50 км 3/0
[Ac trans]
+21.3 +3.9 32 +22 +22 комфорт 1013.0 890.1 +25.3
15 20.08 С 3 50 км ясно +17.5 +3.8 40 +18 +18 1016.4 891.7
18 20.08 З 2 50 км ясно +14.6 +5.0 53 +14 +14 1018.8 892.5
21 20.08 З 2 50 км 3/0
[Ci fib]
+13.2 +5.4 59 +13 +13 1019.4 892.5
00 21.08 СЗ 1 50 км 5/0
[Ci]
+15.1 +6.4 56 +16 +18 1018.9 892.8 +12.2
03 21.08 СВ 2 50 км 8/0
[Ac und Cs]
+18.8 +5.3 41 +20 +28 1016.8 892.6
06 21.08 СВ 2 50 км 8/0
[Ac trans Ci fib]
+21.9 +4.2 31 +22 +32 комфорт 1014.2 891.4
09 21.08 Ю 2 50 км 6/0
[Ac As Cs]
+23.8 +3.7 27 +23 +26 комфорт 1012.0 890.2
12 21.08 ЮВ 2 50 км 5/0
[Ac lent]
+23.0 +3.0 27 +23 +23 комфорт 1012.1 890.0 +24.6
15 21.08 Ю 5 50 км 4/0
[Ac trans]
+21.5 +3.2 30 +22 +22 комфорт 1013.4 890.5
18 21.08 Ю 5 50 км ясно +19.8 +2.6 32 +20 +20 1013.8 890.2
21 21.08 Ю 5 50 км 3/0
[Ac lent]
+18.8 +2.2 33 +19 +19 1014.4 890.4
00 22.08 ЮЗ 2 50 км 6/0
[Ac trans Ci sp]
+21.4 +2.2 28 +21 +23 комфорт 1014.0 891.0 +18.6
03 22.08 ЮЗ 5 50 км 8/0
[Ac lent Cs]
+25.7 +2.4 22 +24 +29 комфорт 1011.5 890.4
06 22.08 З 3 50 км 6/3 1000 м
[Cu hum Ci]
+29.5 +1.9 17 +27 +35 жарко 1008.4 889.2

 

Местоположение метеостанции Ханбогд (Монголия): широта 43.20 долгота 107.16 высота над уровнем моря 914 м.

В архиве по умолчанию представлена погода в Ханбогде за последнюю неделю. Архивные данные за месяц целиком и за предыдущие месяцы, начиная с января 2011 года, Вы можете получить, выбрав интересующий диапазон дат из раскрывающегося списка и нажав кнопку "Ввод!".


*Определитесь, кто Вы:
робот инопланетянин человек

Внимание! Время в таблицах - всемирное. Для получения местного времени необходимо прибавить поправку, которая равна 8 ч.

Смотрите также архив погоды в соседних городах и на ближайших метеорологических станциях:

Погода на Баян Добо Сума (Монголия) (152 км)
Погода в Хатанбулаге (Монголия) (166 км)
Погода в Цогт-Овоо (Монголия) (201 км)
Погода в Баинвендурьере (Внутренняя Монголия, Китай) (205 км)
Погода в Хэй Лю Чжэнь (Внутренняя Монголия, Китай) (213 км)
Погода в Даланзадгаде (Монголия) (226 км)
Погода в Мандале (Внутренняя Монголия, Китай) (253 км)
Погода в Линьхэ (Внутренняя Монголия, Китай) (271 км)
Погода в Мандалгоби (Монголия) (294 км)
Погода в Сайншанде (Монголия) (302 км)

Пояснения к столбцам:

Ветер - указаны скорость ветра в м/с - средняя за 10 мин, порывы в срок и между сроками (в фигурных скобках) и направление, откуда дует ветер: С - северный, СВ - северо-восточный, В - восточный, ЮВ - юго-восточный, Ю - южный, ЮЗ - юго-западный, З - западный, СЗ - северо-западный.
Видимость - горизонтальная дальность видимости в метрах или километрах. При видимости от 1 до 10 км при отсутствии осадков обычно наблюдается дымка, при ухудшении видимости до 1 км и менее - туман. В сухую погоду видимость может ухудшаться дымом, пылью или мглою.
Явления - указаны атмосферные явления, наблюдавшиеся в срок или в последний час перед сроком; фигурными скобками обозначены явления, наблюдавшиеся между сроками (за 1-3 часа до срока); квадратными скобками обозначены град или гололедные отложения с указанием их диаметра в мм.
Облачность - указаны через наклонную черту общая и нижняя облачность в баллах и высота нижней границы облаков в метрах; квадратными скобками обозначены формы облаков: Ci - перистые, Cs - перисто-слоистые, Cc - перисто-кучевые, Ac - высококучевые, As - высокослоистые, Sc - слоисто-кучевые, Ns - слоисто-дождевые, Cu - кучевые, Cb - кучево-дождевые. Подробнее классификацию облаков см. в Атласе облаков (PDF).
T - Температура воздуха - температура, измеренная на высоте 2 м над землей.
Td - Температура точки росы - температура, при понижении до которой содержащийся в воздухе водяной пар достигнет насыщения.
f - Относительная влажность воздуха - влажноcть воздуха, измеренная на высоте 2 м над землей.
Te - Эффективная температура - температура, которую ощущает одетый по сезону человек в тени. Характеристика душности погоды. При расчете учитывается влияние влажности воздуха и скорости ветра на теплоощущения человека.
Tes - Эффективная температура на солнце - температура, которую ощущает человек, с поправкой на солнечный нагрев. Характеристика знойности погоды. Зависит от высоты солнца над горизонтом, облачности и скорости ветра. Ночью, в пасмурную погоду, а также при ветре 12 м/с и более поправка равна нулю.
P - Атмосферное давление - приведенное к уровню моря атмосферное давление.
Po - Атмосферное давление - измеренное на уровне метеостанции атмосферное давление.
Tmin - Минимальная температура - минимум температуры воздуха на высоте 2 м над землей.
Tmax - Максимальная температура - максимум температуры воздуха на высоте 2 м над землей.
R - Количество осадков - Количество выпавших осадков за период времени, мм. При наведении курсора мыши на число - период времени, за который выпало указанное количество осадков.
R24 - Количество осадков - Количество выпавших осадков за 24 часа, мм.
S - Снежный покров - Высота снежного покрова, см. При наведении курсора мыши на число - состояние снежного покрова и степень покрытия местности в баллах.